EW3867 Weather Reports


time (UTC)temp
C
wind
direction
speed
KPH
gust
KPH
rain 1hr
cm
rain 24hr
cm
rain mn
cm
humidity
%
barometer
mb
20260506134602 6 72 0.0 0.0 0.00 0.00 0.00 61 1008.6
20260506133532 6 72 0.0 0.0 0.00 0.00 0.00 65 1008.5
20260506131351 2 73 0.0 0.0 0.00 0.00 0.00 72 1008.3
20260506130322 2 73 0.0 0.0 0.00 0.00 0.00 72 1008.2
20260506125316 2 73 0.0 0.0 0.00 0.00 0.00 73 1008.1
20260506124256 2 73 0.0 0.0 0.00 0.00 0.00 74 1008.0
20260506122118 1 74 0.0 0.0 0.00 0.00 0.00 76 1007.7
20260506121102 1 74 0.0 0.0 0.00 0.00 0.00 77 1007.6
20260506120109 0 105 0.0 0.0 0.00 0.00 0.00 78 1007.4
20260506115058 0 105 0.0 0.0 0.00 0.00 0.00 77 1007.3
20260506112920 0 105 0.0 0.0 0.00 0.00 0.00 78 1007.1
20260506111901 0 105 0.0 0.0 0.00 0.00 0.00 80 1007.2
20260506110827 0 105 0.0 0.0 0.00 0.00 0.00 82 1007.2
20260506105851 0 105 0.0 0.0 0.00 0.00 0.00 81 1007.0
20260506102628 0 105 0.0 0.0 0.00 0.00 0.00 81 1006.6
20260506100457 0 105 0.0 0.0 0.00 0.00 0.00 78 1006.3
20260506095426 0 105 0.0 0.0 0.00 0.00 0.00 77 1006.3
20260506094435 0 105 0.0 0.0 0.00 0.00 0.00 77 1006.2
20260506093437 0 105 0.0 0.0 0.00 0.00 0.00 76 1006.1
20260506092500 0 105 0.0 0.0 0.00 0.00 0.00 77 1006.2
20260506091455 0 105 0.0 0.0 0.00 0.00 0.00 76 1006.3
20260506085402 1 105 0.0 0.0 0.00 0.00 0.00 76 1006.3
20260506082202 1 105 0.0 0.0 0.00 0.00 0.00 74 1006.2
20260506081145 1 105 0.0 0.0 0.00 0.00 0.00 73 1006.2
20260506080126 2 105 0.0 0.0 0.00 0.00 0.00 71 1006.0
20260506073126 2 105 0.0 0.0 0.00 0.00 0.00 69 1006.1
20260506072110 2 105 0.0 0.0 0.00 0.00 0.00 68 1006.0
20260506071041 2 105 0.0 0.0 0.00 0.00 0.00 67 1005.9
20260506062016 3 105 0.0 0.0 0.00 0.00 0.00 64 1005.5
20260506061000 4 105 0.0 0.0 0.00 0.00 0.00 63 1005.3
20260506050845 5 107 0.0 0.0 0.00 0.00 0.00 64 1004.8
20260506041349 6 105 0.0 0.0 0.00 0.00 0.00 63 1003.8
20260506040321 6 105 0.0 0.0 0.00 0.00 0.00 64 1003.8
20260506035336 6 134 0.0 1.6 0.00 0.00 0.00 64 1003.9
20260506034314 6 157 0.0 0.0 0.00 0.00 0.00 62 1003.7
20260506032209 7 157 0.0 0.0 0.00 0.00 0.00 64 1003.3
20260506031201 7 157 0.0 1.6 0.00 0.00 0.00 62 1003.1
20260506030204 7 157 0.0 0.0 0.00 0.00 0.00 62 1002.7
20260506025131 7 157 0.0 0.0 0.00 0.00 0.00 60 1002.4
20260506024110 7 157 0.0 0.0 0.00 0.00 0.00 60 1002.2
20260506023036 8 157 0.0 0.0 0.00 0.00 0.00 57 1001.9
20260506022006 8 166 0.0 11.3 0.00 0.00 0.00 56 1001.7
20260506021004 8 173 0.0 1.6 0.00 0.00 0.00 54 1001.6
20260506013746 10 221 25.7 45.1 0.00 0.00 0.00 53 1001.0
20260506012721 10 184 29.0 43.5 0.00 0.00 0.00 49 1000.9
20260506011654 11 192 17.7 35.4 0.00 0.00 0.00 41 1000.7
20260506010701 12 189 11.3 30.6 0.00 0.00 0.00 39 1000.4
20260506004511 13 163 0.0 14.5 0.00 0.00 0.00 28 999.7
20260506001229 15 224 4.8 17.7 0.00 0.00 0.00 25 999.2
20260505235055 15 248 1.6 0.0 0.00 0.00 0.00 24 999.1
20260505234045 16 0 6.4 1.6 0.00 0.00 0.00 23 998.9
20260505233011 16 247 6.4 25.7 0.00 0.00 0.00 23 998.9
20260505231957 16 212 6.4 25.7 0.00 0.00 0.00 24 999.0
20260505225906 16 230 11.3 24.1 0.00 0.00 0.00 24 998.9
20260505224929 16 219 0.0 29.0 0.00 0.00 0.00 24 999.1
20260505222806 16 255 4.8 30.6 0.00 0.00 0.00 24 999.5
20260505221806 16 234 4.8 30.6 0.00 0.00 0.00 25 999.6
20260505220808 15 215 0.0 1.6 0.00 0.00 0.00 26 999.9
20260505215830 15 202 1.6 4.8 0.00 0.00 0.00 26 1000.1
20260505214802 15 251 6.4 20.9 0.00 0.00 0.00 26 1000.2
20260505213756 15 275 6.4 24.1 0.00 0.00 0.00 27 1000.3
20260505212752 15 217 4.8 24.1 0.00 0.00 0.00 27 1000.6
20260505211817 15 209 6.4 22.5 0.00 0.00 0.00 27 1000.9
20260505205621 16 263 1.6 19.3 0.00 0.00 0.00 25 1001.2
20260505204631 15 234 4.8 19.3 0.00 0.00 0.00 25 1001.3
20260505203643 16 0 6.4 25.7 0.00 0.00 0.00 23 1001.4
20260505202644 17 225 9.7 29.0 0.00 0.00 0.00 23 1001.5
20260505201651 16 227 6.4 29.0 0.00 0.00 0.00 24 1001.6
20260505200622 15 248 1.6 0.0 0.00 0.00 0.00 25 1001.8
20260505195559 15 0 9.7 25.7 0.00 0.00 0.00 25 1001.9
20260505194615 15 222 1.6 20.9 0.00 0.00 0.00 25 1001.9
20260505193612 16 228 11.3 27.4 0.00 0.00 0.00 24 1001.9
20260505192620 16 252 4.8 22.5 0.00 0.00 0.00 22 1001.9
20260505191637 16 0 6.4 22.5 0.00 0.00 0.00 23 1002.2
20260505190629 15 227 0.0 22.5 0.00 0.00 0.00 24 1002.2
20260505185649 15 0 4.8 14.5 0.00 0.00 0.00 24 1002.3
20260505184645 16 0 1.6 17.7 0.00 0.00 0.00 23 1002.4
20260505182517 15 173 4.8 17.7 0.00 0.00 0.00 24 1002.5
20260505181522 15 256 1.6 16.1 0.00 0.00 0.00 24 1002.7
20260505180504 15 242 0.0 12.9 0.00 0.00 0.00 24 1002.6
20260505174408 15 177 0.0 0.0 0.00 0.00 0.00 27 1002.6
20260505173417 14 215 0.0 14.5 0.00 0.00 0.00 27 1002.7
20260505172406 14 0 1.6 16.1 0.00 0.00 0.00 27 1002.7
20260505171420 13 244 4.8 19.3 0.00 0.00 0.00 28 1002.7
20260505170427 13 0 0.0 8.0 0.00 0.00 0.00 30 1002.9
20260505164347 12 0 0.0 12.9 0.00 0.00 0.00 30 1002.9
20260505162209 12 250 0.0 1.6 0.00 0.00 0.00 30 1003.2
20260505152855 11 0 0.0 0.0 0.00 0.00 0.00 33 1003.5
20260505150719 10 0 0.0 1.6 0.00 0.00 0.00 35 1003.4
20260505140608 8 0 0.0 11.3 0.00 0.00 0.00 39 1003.9